Weather History for Grove, OK

Change the Weather History Date:

Saturday, January 4, 2014

  Actual Average (KSLG) Record (KSLG)
Temperature  
Mean Temperature 40 °F -  
Max Temperature 46 °F 44 °F 66 °F (1997)
Min Temperature 33 °F 27 °F 6 °F (1999)
Degree Days  
Heating Degree Days 24    
Moisture  
Dew Point 33 °F    
Average Humidity 76    
Maximum Humidity 100    
Minimum Humidity 56    
Precipitation  
Precipitation 0.00 in - - ()
Sea Level Pressure  
Sea Level Pressure 29.86 in    
Wind  
Wind Speed 12 mph (South)    
Max Wind Speed 22 mph    
Max Gust Speed 34 mph    
Visibility 10 miles    
Events      
Averages and records for this station are not official NWS values.
T = Trace of Precipitation, MM = Missing Value Source: NWS Daily Summary

Daily Weather History Graph

Daily Weather History Graph

Search for Another Location

Airport:

Trip Planner

Search our weather history database for the weather conditions in past years. The results will help you decide how hot, cold, wet, or windy it might be!

Date:

Astronomy

Jan. 04, 2014 Rise Set
Actual Time 7:31 AM CST 5:16 PM CST
Civil Twilight 7:02 AM CST 5:45 PM CST
Nautical Twilight 6:30 AM CST 6:17 PM CST
Astronomical Twilight 5:59 AM CST 6:48 PM CST
Moon 9:44 AM CST (1/4) 9:29 PM CST (1/4)
Length of Visible Light 10h 42m
Length of Day
9h 45m
Waxing Crescent, 15% of the Moon is Illuminated
Jan 4
Waxing Crescent
Jan 7
First Quarter
Jan 15
Full
Jan 23
Last Quarter
Jan 30
New

Hourly Weather History & Observations

Time (CST) Temp. Windchill Dew Point Humidity Pressure Visibility Wind Dir Wind Speed Gust Speed Precip Events Conditions
12:15 AM 35.6 °F 25.9 °F 21.2 °F 56% 29.95 in 10.0 mi South 16.1 mph 21.9 mph N/A   Clear
12:35 AM 35.6 °F 25.5 °F 21.2 °F 56% 29.93 in 10.0 mi South 17.3 mph 25.3 mph N/A   Clear
12:55 AM 35.6 °F 25.9 °F 21.2 °F 56% 29.92 in 10.0 mi South 16.1 mph 25.3 mph N/A   Clear
1:15 AM 35.6 °F 24.2 °F 21.2 °F 56% 29.90 in 10.0 mi South 21.9 mph 29.9 mph N/A   Clear
1:35 AM 37.4 °F 27.2 °F 23.0 °F 56% 29.91 in 10.0 mi South 19.6 mph 31.1 mph N/A   Clear
1:55 AM 37.4 °F 27.5 °F 23.0 °F 56% 29.89 in 10.0 mi South 18.4 mph 34.5 mph N/A   Clear
2:15 AM 37.4 °F 26.9 °F 23.0 °F 56% 29.88 in 10.0 mi South 20.7 mph 28.8 mph N/A   Clear
2:35 AM 37.4 °F 27.2 °F 23.0 °F 56% 29.88 in 10.0 mi South 19.6 mph 29.9 mph N/A   Clear
2:55 AM 37.4 °F 27.2 °F 23.0 °F 56% 29.87 in 10.0 mi South 19.6 mph 28.8 mph N/A   Clear
3:15 AM 37.4 °F 27.8 °F 23.0 °F 56% 29.86 in 10.0 mi South 17.3 mph 25.3 mph N/A   Clear
3:35 AM 37.4 °F 27.5 °F 23.0 °F 56% 29.86 in 10.0 mi South 18.4 mph 26.5 mph N/A   Clear
3:55 AM 37.4 °F 28.9 °F 23.0 °F 56% 29.85 in 10.0 mi South 13.8 mph 23.0 mph N/A   Clear
4:15 AM 37.4 °F 28.5 °F 23.0 °F 56% 29.84 in 10.0 mi South 15.0 mph 24.2 mph N/A   Clear
4:35 AM 37.4 °F 27.5 °F 23.0 °F 56% 29.85 in 10.0 mi South 18.4 mph 23.0 mph N/A   Clear
4:55 AM 37.4 °F 27.8 °F 24.8 °F 60% 29.85 in 10.0 mi South 17.3 mph 20.7 mph N/A   Clear
5:15 AM 37.4 °F 28.2 °F 24.8 °F 60% 29.84 in 10.0 mi South 16.1 mph 25.3 mph N/A   Clear
5:35 AM 37.4 °F 28.2 °F 24.8 °F 60% 29.83 in 10.0 mi South 16.1 mph 28.8 mph N/A   Clear
5:55 AM 37.4 °F 29.3 °F 26.6 °F 65% 29.84 in 10.0 mi South 12.7 mph 23.0 mph N/A   Clear
6:15 AM 37.4 °F 28.9 °F 26.6 °F 65% 29.85 in 10.0 mi South 13.8 mph 17.3 mph N/A   Clear
6:35 AM 37.4 °F 29.3 °F 26.6 °F 65% 29.85 in 10.0 mi South 12.7 mph 20.7 mph N/A   Clear
6:55 AM 37.4 °F 30.3 °F 26.6 °F 65% 29.86 in 10.0 mi South 10.4 mph 17.3 mph N/A   Clear
7:15 AM 37.4 °F 29.8 °F 28.4 °F 70% 29.86 in 10.0 mi South 11.5 mph 17.3 mph N/A   Clear
7:35 AM 37.4 °F 30.8 °F 28.4 °F 70% 29.86 in 10.0 mi South 9.2 mph - N/A   Clear
7:55 AM 37.4 °F 31.4 °F 28.4 °F 70% 29.86 in 10.0 mi SSE 8.1 mph 16.1 mph N/A   Clear
8:15 AM 37.4 °F 32.8 °F 30.2 °F 75% 29.86 in 10.0 mi SSE 5.8 mph - N/A   Scattered Clouds
8:35 AM 37.4 °F 31.4 °F 30.2 °F 75% 29.87 in 10.0 mi SSE 8.1 mph - N/A   Scattered Clouds
8:55 AM 39.2 °F 33.0 °F 32.0 °F 75% 29.87 in 10.0 mi South 9.2 mph - N/A   Mostly Cloudy
9:15 AM 41.0 °F 35.2 °F 32.0 °F 70% 29.87 in 10.0 mi South 9.2 mph - N/A   Overcast
9:35 AM 42.8 °F 37.0 °F 32.0 °F 66% 29.87 in 10.0 mi South 10.4 mph - N/A   Overcast
9:55 AM 42.8 °F 36.2 °F 32.0 °F 66% 29.88 in 10.0 mi South 12.7 mph - N/A   Overcast
10:15 AM 42.8 °F 38.0 °F 33.8 °F 70% 29.88 in 10.0 mi South 8.1 mph - N/A   Overcast
10:35 AM 44.6 °F 40.7 °F 33.8 °F 66% 29.88 in 10.0 mi South 6.9 mph - N/A   Overcast
10:55 AM 44.6 °F 39.2 °F 33.8 °F 66% 29.86 in 10.0 mi SSE 10.4 mph - N/A   Overcast
11:15 AM 44.6 °F 40.2 °F 35.6 °F 71% 29.86 in 10.0 mi South 8.1 mph - N/A   Overcast
11:35 AM 46.4 °F 41.9 °F 35.6 °F 66% 29.85 in 10.0 mi South 9.2 mph - N/A   Overcast
11:55 AM 46.4 °F 40.4 °F 35.6 °F 66% 29.84 in 10.0 mi South 13.8 mph 20.7 mph N/A   Overcast
12:15 PM 46.4 °F 40.7 °F 37.4 °F 71% 29.83 in 10.0 mi South 12.7 mph 18.4 mph N/A   Overcast
12:35 PM 46.4 °F 41.1 °F 37.4 °F 71% 29.82 in 10.0 mi SSW 11.5 mph - N/A   Overcast
12:55 PM 46.4 °F 41.5 °F 37.4 °F 71% 29.81 in 10.0 mi South 10.4 mph - N/A   Overcast
1:15 PM 46.4 °F 41.9 °F 37.4 °F 71% 29.80 in 10.0 mi South 9.2 mph - N/A   Overcast
1:35 PM 46.4 °F 42.9 °F 37.4 °F 71% 29.80 in 10.0 mi South 6.9 mph - N/A   Overcast
1:55 PM 46.4 °F 45.2 °F 37.4 °F 71% 29.80 in 10.0 mi South 3.5 mph - N/A   Overcast
2:15 PM 46.4 °F - 37.4 °F 71% 29.80 in 10.0 mi Calm Calm - N/A   Overcast
2:35 PM 46.4 °F - 37.4 °F 71% 29.80 in 10.0 mi Calm Calm - N/A   Overcast
2:55 PM 46.4 °F - 37.4 °F 71% 29.81 in 10.0 mi Calm Calm - N/A   Overcast
3:15 PM 46.4 °F - 37.4 °F 71% 29.81 in 10.0 mi Calm Calm - N/A   Overcast
3:35 PM 44.6 °F - 37.4 °F 76% 29.82 in 10.0 mi Calm Calm - N/A   Overcast
3:55 PM 44.6 °F 42.2 °F 37.4 °F 76% 29.81 in 10.0 mi ESE 4.6 mph - N/A   Overcast
4:15 PM 44.6 °F 42.2 °F 39.2 °F 81% 29.82 in 10.0 mi ESE 4.6 mph - N/A   Overcast
4:35 PM 44.6 °F 43.1 °F 41.0 °F 87% 29.82 in 10.0 mi ESE 3.5 mph - N/A   Overcast
4:55 PM 44.6 °F - 41.0 °F 87% 29.83 in 10.0 mi Calm Calm - N/A   Overcast
5:15 PM 42.8 °F 41.1 °F 41.0 °F 93% 29.83 in 10.0 mi East 3.5 mph - N/A   Overcast
5:35 PM 42.8 °F - 41.0 °F 93% 29.84 in 10.0 mi Calm Calm - N/A   Overcast
5:55 PM 42.8 °F - 41.0 °F 93% 29.85 in 10.0 mi Calm Calm - N/A   Overcast
6:15 PM 42.8 °F - 42.8 °F 100% 29.86 in 10.0 mi Calm Calm - N/A   Overcast
6:35 PM 42.8 °F - 42.8 °F 100% 29.86 in 10.0 mi Calm Calm - N/A   Overcast
6:55 PM 42.8 °F - 42.8 °F 100% 29.86 in 10.0 mi Calm Calm - N/A   Overcast
7:15 PM 42.8 °F - 42.8 °F 100% 29.87 in 10.0 mi Calm Calm - N/A   Overcast
7:35 PM 42.8 °F - 42.8 °F 100% 29.88 in 10.0 mi Calm Calm - N/A   Overcast
7:55 PM 42.8 °F - 42.8 °F 100% 29.88 in 10.0 mi Calm Calm - N/A   Overcast
8:15 PM 42.8 °F - 42.8 °F 100% 29.88 in 10.0 mi Calm Calm - N/A   Overcast
8:35 PM 42.8 °F 39.3 °F 42.8 °F 100% 29.89 in 7.0 mi NNW 5.8 mph - N/A   Overcast
8:55 PM 39.2 °F 32.5 °F 39.2 °F 100% 29.89 in 7.0 mi NNW 10.4 mph 16.1 mph N/A   Overcast
9:15 PM 37.4 °F 29.8 °F 37.4 °F 100% 29.90 in 7.0 mi North 11.5 mph - N/A   Overcast
9:35 PM 35.6 °F 29.2 °F 35.6 °F 100% 29.90 in 7.0 mi North 8.1 mph 16.1 mph N/A   Overcast
9:55 PM 35.6 °F 29.2 °F 35.6 °F 100% 29.90 in 7.0 mi North 8.1 mph - N/A   Overcast
10:15 PM 35.6 °F 31.7 °F 35.6 °F 100% 29.89 in 7.0 mi North 4.6 mph - N/A   Overcast
10:35 PM 35.6 °F 31.7 °F 35.6 °F 100% 29.89 in 7.0 mi North 4.6 mph - N/A   Overcast
10:55 PM 35.6 °F 28.6 °F 35.6 °F 100% 29.89 in 7.0 mi North 9.2 mph - N/A   Overcast
11:15 PM 35.6 °F 29.9 °F 35.6 °F 100% 29.89 in 7.0 mi North 6.9 mph - N/A   Overcast
11:35 PM 35.6 °F 29.9 °F 35.6 °F 100% 29.90 in 7.0 mi North 6.9 mph - N/A   Overcast
11:55 PM 33.8 °F 27.7 °F 33.8 °F 100% 29.89 in 5.0 mi North 6.9 mph - N/A   Overcast